| time (UTC) | temp F | wind direction | speed MPH | gust MPH | rain 1hr in | rain 24hr in | rain mn in | humidity % | barometer mb |
| 20260506190100 | 31 | 251 | 1.0 | 2.0 | 0.00 | 0.11 | 0.10 | 93 | 1010.2 |
| 20260506184600 | 31 | 251 | 2.0 | 4.0 | 0.00 | 0.11 | 0.10 | 93 | 1010.2 |
| 20260506183115 | 31 | 241 | 3.0 | 6.0 | 0.00 | 0.11 | 0.10 | 92 | 1010.1 |
| 20260506181602 | 32 | 245 | 3.0 | 5.0 | 0.00 | 0.11 | 0.10 | 90 | 1010.0 |
| 20260506180114 | 32 | 207 | 3.0 | 4.0 | 0.00 | 0.13 | 0.10 | 88 | 1009.9 |
| 20260506174556 | 31 | 271 | 4.0 | 6.0 | 0.00 | 0.13 | 0.10 | 88 | 1009.9 |
| 20260506173129 | 32 | 302 | 3.0 | 6.0 | 0.00 | 0.13 | 0.10 | 89 | 1009.9 |
| 20260506171554 | 32 | 330 | 2.0 | 4.0 | 0.00 | 0.13 | 0.10 | 88 | 1009.8 |
| 20260506170053 | 32 | 318 | 3.0 | 6.0 | 0.00 | 0.13 | 0.10 | 90 | 1009.7 |
| 20260506164553 | 31 | 320 | 3.0 | 5.0 | 0.00 | 0.13 | 0.10 | 89 | 1009.7 |
| 20260506163056 | 31 | 307 | 5.0 | 7.0 | 0.00 | 0.13 | 0.10 | 89 | 1009.6 |
| 20260506161555 | 31 | 316 | 4.0 | 8.0 | 0.00 | 0.13 | 0.10 | 86 | 1009.5 |
| 20260506160049 | 31 | 306 | 2.0 | 8.0 | 0.00 | 0.16 | 0.10 | 85 | 1009.4 |
| 20260506154549 | 32 | 319 | 6.0 | 9.0 | 0.00 | 0.16 | 0.10 | 86 | 1009.3 |
| 20260506153047 | 33 | 286 | 3.0 | 5.0 | 0.00 | 0.16 | 0.10 | 84 | 1009.3 |
| 20260506151547 | 33 | 313 | 2.0 | 4.0 | 0.00 | 0.16 | 0.10 | 82 | 1009.2 |
| 20260506150045 | 33 | 302 | 2.0 | 4.0 | 0.00 | 0.16 | 0.10 | 83 | 1009.2 |
| 20260506144559 | 33 | 314 | 2.0 | 3.0 | 0.00 | 0.16 | 0.10 | 84 | 1009.1 |
| 20260506143042 | 32 | 314 | 0.0 | 2.0 | 0.00 | 0.16 | 0.10 | 84 | 1009.1 |
| 20260506141541 | 32 | 314 | 1.0 | 3.0 | 0.00 | 0.16 | 0.10 | 83 | 1009.1 |
| 20260506140040 | 32 | 314 | 1.0 | 3.0 | 0.00 | 0.17 | 0.10 | 84 | 1009.1 |
| 20260506134539 | 32 | 302 | 2.0 | 6.0 | 0.00 | 0.17 | 0.10 | 86 | 1009.0 |
| 20260506133043 | 33 | 296 | 3.0 | 5.0 | 0.00 | 0.17 | 0.10 | 82 | 1009.0 |
| 20260506131537 | 36 | 127 | 0.0 | 2.0 | 0.00 | 0.17 | 0.10 | 79 | 1009.0 |
| 20260506130037 | 35 | 127 | 0.0 | 2.0 | 0.00 | 0.17 | 0.10 | 82 | 1009.0 |
| 20260506124532 | 35 | 127 | 0.0 | 1.0 | 0.00 | 0.17 | 0.10 | 81 | 1008.9 |
| 20260506123031 | 35 | 127 | 0.0 | 2.0 | 0.00 | 0.17 | 0.10 | 82 | 1008.9 |
| 20260506121529 | 36 | 127 | 1.0 | 2.0 | 0.01 | 0.17 | 0.10 | 82 | 1008.9 |
| 20260506120030 | 35 | 130 | 0.0 | 2.0 | 0.01 | 0.17 | 0.10 | 89 | 1008.8 |
| 20260506114527 | 31 | 297 | 0.0 | 2.0 | 0.01 | 0.17 | 0.10 | 91 | 1008.7 |
| 20260506113023 | 30 | 297 | 1.0 | 4.0 | 0.01 | 0.17 | 0.10 | 92 | 1008.7 |
| 20260506111521 | 29 | 323 | 3.0 | 10.0 | 0.00 | 0.17 | 0.09 | 92 | 1008.6 |
| 20260506110020 | 30 | 304 | 7.0 | 10.0 | 0.00 | 0.17 | 0.09 | 89 | 1008.5 |
| 20260506104516 | 32 | 309 | 5.0 | 7.0 | 0.00 | 0.17 | 0.09 | 78 | 1008.2 |
| 20260506103015 | 37 | 176 | 0.0 | 2.0 | 0.01 | 0.17 | 0.09 | 74 | 1008.0 |
| 20260506101510 | 36 | 176 | 0.0 | 2.0 | 0.02 | 0.17 | 0.09 | 77 | 1007.9 |
| 20260506100010 | 35 | 176 | 0.0 | 2.0 | 0.02 | 0.19 | 0.09 | 79 | 1007.8 |
| 20260506094506 | 36 | 179 | 0.0 | 2.0 | 0.02 | 0.19 | 0.09 | 82 | 1007.8 |
| 20260506093004 | 36 | 179 | 0.0 | 2.0 | 0.02 | 0.18 | 0.09 | 83 | 1007.7 |
| 20260506091559 | 34 | 172 | 1.0 | 3.0 | 0.02 | 0.17 | 0.08 | 84 | 1007.7 |
| 20260506090100 | 34 | 200 | 1.0 | 5.0 | 0.02 | 0.19 | 0.08 | 86 | 1007.6 |
| 20260506084558 | 33 | 176 | 2.0 | 7.0 | 0.02 | 0.18 | 0.07 | 88 | 1007.6 |
| 20260506083058 | 32 | 260 | 4.0 | 8.0 | 0.04 | 0.18 | 0.07 | 90 | 1007.5 |
| 20260506081552 | 32 | 291 | 2.0 | 5.0 | 0.04 | 0.17 | 0.06 | 87 | 1007.3 |
| 20260506080104 | 34 | 270 | 2.0 | 4.0 | 0.06 | 0.20 | 0.06 | 92 | 1007.2 |
| 20260506073052 | 30 | 327 | 2.0 | 4.0 | 0.03 | 0.17 | 0.03 | 91 | 1006.9 |
| 20260506071543 | 31 | 240 | 0.0 | 3.0 | 0.02 | 0.16 | 0.02 | 92 | 1006.8 |
| 20260506061536 | 31 | 240 | 3.0 | 5.0 | 0.00 | 0.13 | 0.00 | 93 | 1006.3 |
| 20260506044536 | 29 | 240 | 5.0 | 8.0 | 0.00 | 0.13 | 0.00 | 94 | 1005.5 |
| 20260506043024 | 29 | 247 | 4.0 | 7.0 | 0.00 | 0.13 | 0.00 | 94 | 1005.4 |
| 20260506041527 | 29 | 180 | 3.0 | 5.0 | 0.00 | 0.13 | 0.00 | 94 | 1005.2 |
| 20260506040019 | 28 | 300 | 2.0 | 4.0 | 0.00 | 0.13 | 0.00 | 94 | 1005.2 |
| 20260506034519 | 28 | 311 | 3.0 | 4.0 | 0.00 | 0.13 | 0.00 | 94 | 1005.1 |
| 20260506033017 | 28 | 291 | 3.0 | 5.0 | 0.00 | 0.13 | 0.00 | 93 | 1005.0 |
| 20260506031517 | 27 | 248 | 0.0 | 2.0 | 0.00 | 0.13 | 0.00 | 93 | 1004.9 |
| 20260506030013 | 27 | 243 | 3.0 | 6.0 | 0.00 | 0.13 | 0.00 | 94 | 1004.7 |
| 20260506024517 | 27 | 292 | 2.0 | 5.0 | 0.00 | 0.13 | 0.00 | 93 | 1004.6 |
| 20260506023017 | 27 | 318 | 2.0 | 3.0 | 0.00 | 0.13 | 0.00 | 93 | 1004.5 |
| 20260506021508 | 27 | 316 | 2.0 | 5.0 | 0.00 | 0.13 | 0.00 | 93 | 1004.4 |
| 20260506020006 | 27 | 310 | 3.0 | 6.0 | 0.00 | 0.13 | 0.00 | 95 | 1004.3 |
| 20260506014505 | 27 | 246 | 3.0 | 5.0 | 0.00 | 0.13 | 0.00 | 95 | 1004.3 |
| 20260506013003 | 27 | 231 | 3.0 | 5.0 | 0.00 | 0.13 | 0.00 | 95 | 1004.2 |
| 20260506011624 | 28 | 259 | 1.0 | 3.0 | 0.00 | 0.13 | 0.00 | 95 | 1004.1 |
| 20260506010119 | 28 | 259 | 0.0 | 2.0 | 0.00 | 0.13 | 0.00 | 95 | 1004.1 |
| 20260506004557 | 28 | 250 | 0.0 | 2.0 | 0.00 | 0.13 | 0.00 | 95 | 1004.0 |
| 20260506003058 | 28 | 250 | 1.0 | 2.0 | 0.00 | 0.13 | 0.00 | 96 | 1004.0 |
| 20260506001557 | 28 | 250 | 0.0 | 2.0 | 0.00 | 0.13 | 0.00 | 95 | 1003.9 |
| 20260506000058 | 28 | 250 | 0.0 | 3.0 | 0.00 | 0.13 | 0.00 | 95 | 1003.9 |
| 20260505234551 | 29 | 250 | 2.0 | 3.0 | 0.00 | 0.13 | 0.00 | 95 | 1003.8 |
| 20260505233049 | 29 | 245 | 2.0 | 4.0 | 0.00 | 0.13 | 0.00 | 96 | 1003.8 |
| 20260505231546 | 28 | 282 | 2.0 | 3.0 | 0.00 | 0.13 | 0.00 | 95 | 1003.8 |
| 20260505230045 | 29 | 281 | 1.0 | 3.0 | 0.00 | 0.13 | 0.00 | 95 | 1003.7 |
| 20260505224544 | 29 | 269 | 0.0 | 2.0 | 0.00 | 0.13 | 0.00 | 95 | 1003.6 |
| 20260505223043 | 29 | 269 | 1.0 | 3.0 | 0.00 | 0.13 | 0.00 | 95 | 1003.6 |
| 20260505221546 | 28 | 296 | 2.0 | 2.0 | 0.00 | 0.13 | 0.00 | 95 | 1003.5 |
| 20260505220052 | 29 | 296 | 0.0 | 2.0 | 0.00 | 0.13 | 0.13 | 95 | 1003.5 |
| 20260505214541 | 29 | 301 | 3.0 | 4.0 | 0.00 | 0.13 | 0.13 | 95 | 1003.4 |
| 20260505213039 | 29 | 305 | 0.0 | 3.0 | 0.00 | 0.13 | 0.13 | 95 | 1003.4 |
| 20260505211539 | 29 | 306 | 0.0 | 4.0 | 0.00 | 0.13 | 0.13 | 95 | 1003.3 |
| 20260505210044 | 29 | 260 | 1.0 | 4.0 | 0.00 | 0.13 | 0.13 | 95 | 1003.2 |
| 20260505204532 | 30 | 259 | 4.0 | 6.0 | 0.00 | 0.13 | 0.13 | 95 | 1003.1 |
| 20260505203033 | 30 | 241 | 3.0 | 7.0 | 0.00 | 0.13 | 0.13 | 95 | 1003.0 |
| 20260505201530 | 30 | 264 | 3.0 | 5.0 | 0.00 | 0.13 | 0.13 | 95 | 1003.0 |
| 20260505200030 | 30 | 273 | 3.0 | 5.0 | 0.00 | 0.13 | 0.13 | 95 | 1002.9 |
| 20260505194529 | 30 | 256 | 3.0 | 6.0 | 0.00 | 0.13 | 0.13 | 95 | 1002.8 |
| 20260505193035 | 30 | 245 | 4.0 | 6.0 | 0.00 | 0.13 | 0.13 | 95 | 1002.8 |
| 20260505191526 | 30 | 238 | 4.0 | 6.0 | 0.00 | 0.13 | 0.13 | 94 | 1002.7 |